Other Public Products
Issued by NWS Grand Forks, ND

Home | Current Version | Previous Version | Graphics & Text | Print | Product List | Glossary On
Versions: 1 2 3 4 5 6 7 8 9 10 11 12 13 14 15 16 17 18 19 20 21 22 23 24 25 26 27 28 29 30 31 32 33 34 35 36 37 38 39 40 41 42 43 44 45 46 47 48 49 50
000
FPUS83 KFGF 310910
OPUFGF
PRAIRIE TO PINES WEATHER ROUNDUP
NATIONAL WEATHER SERVICE EASTERN NORTH DAKOTA/GRAND FORKS ND
300 AM CST SAT JAN 31 2015

 **SATELLITE DATA USED TO AUGMENT SKY COVER AT AUTOMATED STATIONS**
 *****  WEATHER ACROSS EASTERN NORTH DAKOTA  *****

CITY           SKY/WX    TMP DP  RH WIND       PRES   REMARKS
GRAND FORKS    FLURRIES  15  10  80 N24       30.27R WCI  -4
GRAND FORKS AF FLURRIES  14   9  79 NE21G26   30.27R WCI  -4
GRAND CITY NWS   N/A     14 N/A N/A N16         N/A  WCI  -2
BUXTON         NOT AVBL
DEVILS LAKE    CLOUDY    12   7  79 N18       30.25R WCI  -5
FARGO          CLOUDY    19  14  81 N15       30.23R WCI   5
WAHPETON ARPT  CLOUDY    23  19  86 N15       30.21R WCI  10
$$

 *****  WEATHER ACROSS CENTRAL AND WESTERN NORTH DAKOTA  *****

CITY           SKY/WX    TMP DP  RH WIND       PRES   REMARKS
JAMESTOWN      CLOUDY    22  17  81 N14       30.20R WCI   9
BISMARCK       CLOUDY    23  22  96 N10       30.22R WCI  12
MINOT          CLOUDY    18  14  84 N14       30.23S WCI   4
MINOT AFB      MIX PCPN  18  18 100 NE14      30.24S WCI   4
GARRISON         N/A     21  18  88 NE7       30.21R WCI  12
WILLISTON      CLOUDY    24  20  84 E10       30.20F WCI  14
DICKINSON      FOG       24  22  91 NE9       30.12R VSB 1/2 WCI  14
HETTINGER      CLEAR     22  19  89 E3        30.11F
$$

 *****  OTHER OBSERVATIONS NORTHEAST NORTH DAKOTA  *****

CITY           SKY/WX    TMP DP  RH WIND       PRES   REMARKS
WALHALLA       LGT SNOW   9   9 100 N16G23    30.35R WCI  -9
LANGDON        NOT AVBL
CAVALIER       CLOUDY     9   5  85 N15G25    30.35R WCI  -8
GRAFTON        NOT AVBL
CANDO          PTSUNNY    7   1  78 NE20G29   30.30S WCI -13
FORT TOTTEN      N/A     14   9  80 N7        29.95S WCI   4
ROLLA          CLOUDY     5   0  78 NE22      30.27F WCI -16
RUGBY          PTSUNNY   10   7  85 NE22      30.28R WCI  -9
 ***** THE ABOVE OBSERVATIONS ARE NON NWS ARE NOT QUALITY
        CONTROLLED AND MAY MIS-REPORT RAIN FOR SNOW...
$$

 *****  OTHER OBSERVATIONS SOUTHEAST NORTH DAKOTA *****

CITY           SKY/WX    TMP DP  RH WIND       PRES   REMARKS
COOPERSTOWN    NOT AVBL
VALLEY CITY    CLOUDY    19  19 100 N10       30.20R WCI   8
OAKES            N/A     23  23 100 N12       30.20S WCI  12
GWINNER        CLOUDY    25  23  93 N14       30.22R WCI  13
SHEYENNE NWR     N/A     23  17  79 N7        29.95S WCI  15
BUFFALO        NOT AVBL
WYNDMERE         N/A     23  19  86 VRB8        N/A  WCI  14
 ***** THE ABOVE OBSERVATIONS ARE NON NWS ARE NOT QUALITY
       CONTROLLED AND MAY MIS-REPORT RAIN FOR SNOW...
$$

  *****  WEATHER ACROSS NORTHERN MINNESOTA  *****

CITY           SKY/WX    TMP DP  RH WIND       PRES   REMARKS
FLAG ISLAND    CLEAR      3   0  85 NW20      30.21R WCI -18
WARROAD        CLEAR      9   3  78 NW10      30.22R WCI  -6
ROSEAU         FAIR       9   3  78 N18G24    30.23R WCI -10
HALLOCK        CLEAR      7   1  78 N16       30.31R WCI -11
THF RVR FALLS  CLOUDY    16  10  79 N14       30.20F WCI   1
HALSTAD          N/A     17  12  82 N18         N/A  WCI   0
FOSSTON        CLOUDY    16  12  86 N15       30.18R WCI   1
BAUDETTE       CLOUDY    13   7  77 NW15      30.17R WCI  -3
WASKISH        CLOUDY    16  12  86 N9        30.17R WCI   4
CROOKSTON      CLOUDY    16  12  86 N18       30.24R WCI  -1
$$
  *****  WEATHER ACROSS CENTRAL AND WEST MINNESOTA  *****

CITY           SKY/WX    TMP DP  RH WIND       PRES   REMARKS
BEMIDJI        CLOUDY    20  17  88 NW10      30.14R WCI   9
PARK RAPIDS    CLOUDY    23  18  81 N15       30.10R WCI  10
WADENA         CLOUDY    21  21 100 NW12      30.12R WCI   9
DETROIT LAKES  CLOUDY    21  19  93 N15       30.16R WCI   8
MOORHEAD       CLOUDY    19  18  93 N14       30.23R WCI   6
FERGUS FALLS   CLOUDY    21  18  86 NW14G21   30.21R WCI   8
ELBOW LAKE     CLOUDY    23  21  93 NW13      30.16R WCI  11
MORRIS MN      CLOUDY    25  21  86 NW12      30.16R FOG     WCI  14
STAPLES        CLOUDY    21  19  93 NW7       30.12R WCI  13
WHEATON        CLOUDY    23  19  86 N13       30.22R WCI  11
$$
  *****  WEATHER ELSEWHERE ACROSS MINNESOTA  *****

CITY           SKY/WX    TMP DP  RH WIND       PRES   REMARKS
DULUTH         CLOUDY    20  13  74 W6        30.06S WCI  12
INTRNTL FALLS  CLOUDY    14   9  80 N13       30.13R WCI   0
ELY            CLOUDY    16  12  86 W7        30.06S WCI   6
CLOQUET        CLOUDY    19  12  73 CALM      30.08S
BRAINERD       CLOUDY    24  19  81 NW6       30.11R WCI  17
HIBBING        CLOUDY    18  10  71 CALM      30.07S
ALEXANDRIA     CLOUDY    23  20  88 N10       30.13R WCI  12
SAINT CLOUD    CLOUDY    18  15  88 NW3       30.12R
MINNEAPOLIS    MOCLDY    20  16  84 E3        30.13S
$$

  *****  WEATHER ACROSS SOUTH DAKOTA  *****

CITY           SKY/WX    TMP DP  RH WIND       PRES   REMARKS
SIOUX FALLS    PTCLDY    23  21  92 N3        30.10F
BROOKINGS      NOT AVBL
WATERTOWN      CLOUDY    25  23  92 NE15      30.11F FOG     WCI  13
HURON          PTCLDY    26  24  92 N12       30.12S WCI  16
SISSETON         N/A     26  24  92 N17       30.19R WCI  13
ABERDEEN       CLOUDY    26  23  88 NE13      30.19R WCI  15
MITCHELL       PTCLDY    24  23  96 NW5       30.11S WCI  18
PIERRE         PTCLDY    27  24  89 NE8       30.10S WCI  19
MOBRIDGE       CLOUDY    27  25  92 N12       30.13S FOG     WCI  17
RAPID CITY     CLOUDY    30  22  72 NW5       30.07S
$$

  *****  SOME WEATHER IN NEARBY STATES *****

CITY           SKY/WX    TMP DP  RH WIND       PRES   REMARKS
GLASGOW MT     CLOUDY    27  24  89 E23       30.08R FOG     WCI  12
GREAT FALLS MT CLOUDY    34  19  54 W13G30    29.99R WCI  25
CHEYENNE WY    CLOUDY    32  23  69 NW7       29.98F
SCOTTSBLUFF NE CLOUDY    33  26  75 CALM      30.02F
OMAHA NE       CLOUDY    32  26  78 SE8       30.21F WCI  25
DES MOINES IA  MOCLDY    28  19  69 S6        30.22F WCI  22
DAVENPORT IA   CLEAR     25  17  72 SW9       30.26F WCI  15
CHICAGO IL     CLOUDY    24  17  74 SW6       30.28F WCI  17
EAU CLAIRE WI  CLOUDY    20  11  68 CALM      30.13F
LA CROSSE WI   CLEAR     22  13  68 SE6       30.17F WCI  14
$$

  *****  SOME NATIONAL WEATHER *****

CITY           SKY/WX    TMP DP  RH WIND       PRES   REMARKS
LA GUARDIA NY  PTCLDY    17   5  59 NW21G31   30.06S WCI   0
RALEIGH NC     CLEAR     27   8  44 CALM      30.32S
ATLANTA GA     PTCLDY    32  19  58 N6        30.31F
NEW ORLEANS LA PTCLDY    49  34  56 E9        30.29F
OKLAHOMA CITY  CLOUDY    43  28  55 SE5       30.23R
ALBUQUERQUE NM LGT RAIN  36  32  85 N6        29.98F
SALT LAKE CITY CLOUDY    40  36  86 W8        29.96S
LOS ANGELES CA PTCLDY    57  56  96 E3        29.86F
BOISE ID       CLEAR     28  25  88 SE3       30.12F
SEATTLE WA     FOG       38  36  92 N5        30.25F VSB 1/8
$$

*** WEATHER ACROSS MANITOBA...SASKATCHEWAN AND ONTARIO ***
                ***ONTARIO***

CITY           SKY/WX    TMP DP  RH WIND       PRES   REMARKS
GERALDTON      FLURRIES   1  -2  85 S2        29.99S
THUNDER BAY    FLURRIES   7   5  92 W3        30.08F
SIOUX LOOKOUT  LGT SNOW   7   1  78 NW9G18    30.11R WCI  -7
TORONTO        MOCLDY     5   0  78 NE5       30.33F WCI  -4
BIG TROUT LK   PTCLDY   -22 -29  69 NW9       30.22R WCI -42
PICKLE LAKE    NOT AVBL
DRYDEN         FLURRIES   7   3  85 NW8G22    30.12R WCI  -6
KENORA         FLURRIES   7   3  85 NW13G18   30.17R WCI  -9
$$
                *** MANITOBA***

CITY           SKY/WX    TMP DP  RH WIND       PRES   REMARKS
BRANDON        MOCLDY     3  -4  72 NE7       30.37R WCI  -9
DAUPHIN        CLEAR     -2  -8  78 NE10      30.48R WCI -19
ISLAND LAKE    CLEAR    -22 -31  63 NW10G20   30.39R WCI -44
PILOT MOUND      N/A      3  -4  72 N14         N/A  WCI -15
THE PAS        CLEAR    -18 -27  63 N10       30.59R WCI -39
THOMPSON       CRYSTALS -26 -35  62 NW9       30.47R WCI -47
WINNIPEG       PTCLDY     1  -6  71 N17G29    30.37R WCI -19
LYNN LAKE      CLEAR    -27 -35  68 NW13      30.50R WCI -53
CHURCHILL      BLWGSNOW -24 -29  76 NW26G36   30.29R VSB 1/4 WCI -57
GILLAM         CLEAR    -27 -36  62 W13       30.36R WCI -53
$$
                ***SASKATCHEWAN***

CITY           SKY/WX    TMP DP  RH WIND       PRES   REMARKS
ESTEVAN        FLURRIES  14  10  85 NE12G18   30.26R WCI   0
KINDERSLEY     CRYSTALS   9   3  78 NE21G28   30.31R BLWGSNOWWCI -11
LLOYDMINSTER   PTCLDY    -4  -9  77 NE13      30.45R WCI -23
PRINCE ALBERT  PTCLDY    -9 -15  77 NE5       30.54R WCI -21
REGINA         LGT SNOW   9   5  85 NE15      30.33R WCI  -8


USA.gov is the U.S. government's official web portal to all federal, state and local government web resources and services.